TimeCDT,TemperatureF,Dew PointF,Humidity,Sea Level PressureIn,VisibilityMPH,Wind Direction,Wind SpeedMPH,Gust SpeedMPH,PrecipitationIn,Events,Conditions,WindDirDegrees,DateUTC
12:15 AM,78.3,70.2,76,29.82,7.0,SSE,11.5,-,N/A,,Scattered Clouds,150,2014-05-08 05:15:00
12:35 AM,78.1,70.3,77,29.82,7.0,SSE,10.4,16.1,N/A,,Mostly Cloudy,150,2014-05-08 05:35:00
12:55 AM,78.1,70.5,77,29.83,7.0,SSE,6.9,-,N/A,,Overcast,160,2014-05-08 05:55:00
1:15 AM,77.9,70.7,78,29.82,7.0,SSE,5.8,-,N/A,Rain,Light Rain,150,2014-05-08 06:15:00
1:35 AM,76.8,72.0,85,29.81,5.0,SE,8.1,-,N/A,,Drizzle,130,2014-05-08 06:35:00
1:55 AM,76.1,73.6,92,29.81,5.0,SSE,3.5,-,N/A,,Light Drizzle,150,2014-05-08 06:55:00
2:15 AM,76.1,73.6,92,29.79,5.0,SE,6.9,-,N/A,,Light Drizzle,130,2014-05-08 07:15:00
2:35 AM,76.3,73.4,91,29.79,5.0,SE,5.8,-,N/A,,Light Drizzle,140,2014-05-08 07:35:00
2:55 AM,76.1,73.9,93,29.79,5.0,SSE,5.8,-,N/A,,Light Drizzle,150,2014-05-08 07:55:00
3:15 AM,75.7,73.9,94,29.79,5.0,SE,4.6,-,N/A,,Light Drizzle,140,2014-05-08 08:15:00
3:35 AM,75.6,74.3,96,29.79,5.0,SSE,5.8,-,N/A,,Drizzle,150,2014-05-08 08:35:00
3:55 AM,75.4,74.3,96,29.78,5.0,SE,6.9,-,0.01,Rain,Light Rain,140,2014-05-08 08:55:00
4:15 AM,75.4,74.3,96,29.78,4.0,SE,5.8,-,0.01,,Light Drizzle,140,2014-05-08 09:15:00
4:35 AM,75.2,74.3,97,29.77,4.0,SE,6.9,-,0.01,,Scattered Clouds,130,2014-05-08 09:35:00
4:55 AM,75.2,74.3,97,29.77,4.0,SE,8.1,-,0.01,Rain,Rain,140,2014-05-08 09:55:00
5:15 AM,75.4,74.5,97,29.77,4.0,SSE,6.9,-,N/A,,Light Drizzle,150,2014-05-08 10:15:00
5:35 AM,75.2,74.3,97,29.75,4.0,SE,10.4,-,N/A,Rain,Light Rain,130,2014-05-08 10:35:00
5:55 AM,75.2,74.3,97,29.76,4.0,SE,8.1,-,N/A,Rain,Light Rain,130,2014-05-08 10:55:00
6:15 AM,75.2,74.3,97,29.75,4.0,SE,9.2,-,0.01,Rain,Light Rain,130,2014-05-08 11:15:00
6:35 AM,75.2,74.3,97,29.76,4.0,ESE,6.9,-,0.01,,Mostly Cloudy,120,2014-05-08 11:35:00
6:55 AM,75.4,74.5,97,29.75,4.0,ESE,9.2,-,0.01,Rain,Light Rain,120,2014-05-08 11:55:00
7:15 AM,75.4,74.3,96,29.75,3.0,ESE,12.7,18.4,N/A,,Scattered Clouds,120,2014-05-08 12:15:00
7:35 AM,75.6,74.3,96,29.77,3.0,SE,11.5,16.1,N/A,,Scattered Clouds,140,2014-05-08 12:35:00
7:55 AM,76.1,74.3,94,29.77,3.0,SE,12.7,20.7,N/A,,Overcast,140,2014-05-08 12:55:00
8:15 AM,76.1,74.3,94,29.77,4.0,SE,12.7,19.6,N/A,,Mostly Cloudy,140,2014-05-08 13:15:00
8:35 AM,76.3,74.3,94,29.78,4.0,SE,12.7,17.3,N/A,,Scattered Clouds,140,2014-05-08 13:35:00
8:55 AM,76.3,74.3,94,29.78,4.0,SE,10.4,16.1,N/A,,Scattered Clouds,140,2014-05-08 13:55:00
9:15 AM,76.6,74.3,92,29.79,4.0,SSE,10.4,-,N/A,,Scattered Clouds,150,2014-05-08 14:15:00
9:35 AM,77.2,73.9,90,29.80,4.0,SE,9.2,16.1,N/A,,Clear,140,2014-05-08 14:35:00
9:55 AM,78.1,73.4,85,29.81,5.0,SE,13.8,20.7,N/A,,Haze,140,2014-05-08 14:55:00
10:15 AM,78.6,73.6,84,29.82,5.0,SSE,10.4,18.4,N/A,,Haze,150,2014-05-08 15:15:00
10:35 AM,79.0,73.6,83,29.82,5.0,SSE,10.4,-,N/A,,Haze,150,2014-05-08 15:35:00
10:55 AM,80.8,73.4,78,29.82,5.0,SSE,12.7,16.1,N/A,,Haze,160,2014-05-08 15:55:00
11:15 AM,82.9,72.9,71,29.81,5.0,SSE,12.7,18.4,N/A,,Haze,150,2014-05-08 16:15:00
11:35 AM,83.7,72.0,68,29.81,7.0,South,13.8,20.7,N/A,,Scattered Clouds,170,2014-05-08 16:35:00
11:55 AM,85.5,70.5,61,29.81,7.0,SSE,11.5,17.3,N/A,,Clear,160,2014-05-08 16:55:00
12:15 PM,86.7,69.8,57,29.81,7.0,South,10.4,19.6,N/A,,Clear,170,2014-05-08 17:15:00
12:35 PM,87.1,69.1,55,29.81,7.0,South,12.7,20.7,N/A,,Clear,170,2014-05-08 17:35:00
12:55 PM,89.8,68.5,49,29.80,7.0,SSE,11.5,20.7,N/A,,Clear,150,2014-05-08 17:55:00
1:15 PM,90.9,66.0,44,29.80,10.0,South,13.8,17.3,N/A,,Clear,170,2014-05-08 18:15:00
1:35 PM,92.1,64.4,40,29.79,10.0,SSE,18.4,25.3,N/A,,Clear,160,2014-05-08 18:35:00
1:55 PM,92.1,64.0,39,29.78,10.0,SSE,15.0,19.6,N/A,,Clear,160,2014-05-08 18:55:00
2:15 PM,91.8,64.4,40,29.78,10.0,South,8.1,17.3,N/A,,Clear,190,2014-05-08 19:15:00
2:35 PM,91.4,64.0,40,29.78,10.0,South,6.9,18.4,N/A,,Clear,180,2014-05-08 19:35:00
2:55 PM,91.2,62.1,38,29.78,10.0,SSE,12.7,18.4,N/A,,Clear,160,2014-05-08 19:55:00
3:15 PM,90.7,61.3,37,29.77,10.0,SSE,11.5,17.3,N/A,,Clear,160,2014-05-08 20:15:00
3:35 PM,90.7,61.7,38,29.77,10.0,South,10.4,-,N/A,,Clear,170,2014-05-08 20:35:00
3:55 PM,90.9,63.0,39,29.75,10.0,South,12.7,17.3,N/A,,Clear,170,2014-05-08 20:55:00
4:15 PM,92.3,61.0,35,29.75,10.0,SSE,12.7,18.4,N/A,,Clear,150,2014-05-08 21:15:00
4:35 PM,93.6,61.7,35,29.74,10.0,SSE,11.5,-,N/A,,Clear,160,2014-05-08 21:35:00
4:55 PM,95.9,58.8,29,29.73,10.0,South,12.7,16.1,N/A,,Clear,170,2014-05-08 21:55:00
5:15 PM,97.0,57.6,27,29.73,10.0,South,11.5,17.3,N/A,,Clear,170,2014-05-08 22:15:00
5:35 PM,96.4,57.2,27,29.72,10.0,South,6.9,16.1,N/A,,Clear,180,2014-05-08 22:35:00
5:55 PM,95.9,60.8,31,29.73,10.0,South,10.4,19.6,N/A,,Clear,170,2014-05-08 22:55:00
6:15 PM,95.4,59.5,30,29.73,10.0,SSE,8.1,-,N/A,,Scattered Clouds,160,2014-05-08 23:15:00
6:35 PM,95.5,58.1,29,29.72,10.0,SSE,10.4,-,N/A,,Clear,160,2014-05-08 23:35:00
6:55 PM,95.0,57.6,28,29.72,10.0,SSE,8.1,17.3,N/A,,Clear,150,2014-05-08 23:55:00
7:15 PM,92.3,64.9,40,29.72,10.0,SE,16.1,24.2,N/A,,Scattered Clouds,130,2014-05-09 00:15:00
7:35 PM,90.3,67.1,46,29.73,10.0,SE,11.5,23.0,N/A,,Clear,140,2014-05-09 00:35:00
7:55 PM,88.3,68.9,52,29.73,7.0,SE,18.4,25.3,N/A,,Clear,140,2014-05-09 00:55:00
8:15 PM,86.9,70.7,58,29.74,7.0,SE,15.0,23.0,N/A,,Clear,140,2014-05-09 01:15:00
8:35 PM,86.0,70.7,60,29.75,7.0,SE,10.4,24.2,N/A,,Clear,140,2014-05-09 01:35:00
8:55 PM,85.3,70.3,61,29.76,7.0,SE,16.1,20.7,N/A,,Clear,140,2014-05-09 01:55:00
9:15 PM,84.7,70.3,62,29.77,7.0,SE,10.4,18.4,N/A,,Clear,140,2014-05-09 02:15:00
9:35 PM,83.8,70.2,63,29.77,7.0,SE,9.2,-,N/A,,Clear,140,2014-05-09 02:35:00
9:55 PM,83.5,70.3,64,29.78,7.0,SE,11.5,-,N/A,,Clear,140,2014-05-09 02:55:00
10:15 PM,82.8,70.7,67,29.78,7.0,SE,10.4,16.1,N/A,,Clear,140,2014-05-09 03:15:00
10:35 PM,82.2,71.6,70,29.79,7.0,SSE,10.4,17.3,N/A,,Clear,150,2014-05-09 03:35:00
11:15 PM,80.8,72.3,75,29.80,7.0,ESE,8.1,-,N/A,,Clear,120,2014-05-09 04:15:00
11:35 PM,80.1,73.0,79,29.80,5.0,SE,8.1,-,N/A,,Haze,140,2014-05-09 04:35:00
11:55 PM,79.7,73.4,81,29.80,5.0,ESE,6.9,-,N/A,,Haze,110,2014-05-09 04:55:00